,,,PA_Meas_PMT16A,,PR_Meas_QMR101_102,,RH_Meas_QMH101,,SR_Meas_QMS101,,TA_Meas_QMH101,,GenWind,,GenWind,
date,time,status,PA,status,PR,status,RH,status,SR,status,TA,status,DirAvg,status,SpdAvg,
2010-06-26, 00:00:04,VALID,1000.34,VALID,0,VALID,88.3357,VALID,0,VALID,24.0525,VALID,166,VALID,1.78711,
2010-06-26, 00:01:04,VALID,1000.33,VALID,0,VALID,88.6028,VALID,0,VALID,24.072,VALID,169,VALID,1.71055,
2010-06-26, 00:02:04,VALID,1000.33,VALID,0,VALID,88.8317,VALID,0,VALID,24.0915,VALID,172,VALID,1.55039,
2010-06-26, 00:03:04,VALID,1000.31,VALID,0,VALID,88.9766,VALID,0,VALID,24.0915,VALID,175,VALID,1.82305,
2010-06-26, 00:04:04,VALID,1000.28,VALID,0,VALID,88.8469,VALID,0,VALID,24.111,VALID,177,VALID,1.25,
2010-06-26, 00:05:04,VALID,1000.3,VALID,0,VALID,88.7859,VALID,0,VALID,24.111,VALID,172,VALID,1.61172,
2010-06-26, 00:06:04,VALID,1000.26,VALID,0,VALID,88.5646,VALID,0,VALID,24.1305,VALID,176,VALID,1.18828,
2010-06-26, 00:07:04,VALID,1000.26,VALID,0,VALID,88.3052,VALID,0,VALID,24.1305,VALID,179,VALID,0.980078,
2010-06-26, 00:08:04,VALID,1000.26,VALID,0,VALID,88.2137,VALID,0,VALID,24.15,VALID,166,VALID,1.01953,
2010-06-26, 00:09:04,VALID,1000.26,VALID,0,VALID,87.7559,VALID,0,VALID,24.111,VALID,164,VALID,0.989453,
2010-06-26, 00:10:04,VALID,1000.24,VALID,0,VALID,87.6338,VALID,0,VALID,24.111,VALID,131,VALID,0.808594,
2010-06-26, 00:11:04,VALID,1000.23,VALID,0,VALID,87.3515,VALID,0,VALID,24.0915,VALID,132,VALID,0.724609,
2010-06-26, 00:12:04,VALID,1000.22,VALID,0,VALID,87.3439,VALID,0,VALID,24.0525,VALID,107,VALID,0.755859,
2010-06-26, 00:13:04,VALID,1000.21,VALID,0,VALID,87.3897,VALID,0,VALID,23.9939,VALID,98,VALID,0.671484,
2010-06-26, 00:14:04,VALID,1000.22,VALID,0,VALID,87.4202,VALID,0,VALID,23.9354,VALID,98,VALID,0.362891,
2010-06-26, 00:15:04,VALID,1000.24,VALID,0,VALID,87.7711,VALID,0,VALID,23.8768,VALID,98,VALID,0.33125,
2010-06-26, 00:16:04,VALID,1000.21,VALID,0,VALID,87.939,VALID,0,VALID,23.8378,VALID,98,VALID,0.0121094,
2010-06-26, 00:17:04,VALID,1000.2,VALID,0,VALID,87.9543,VALID,0,VALID,23.7793,VALID,98,VALID,0,
2010-06-26, 00:18:04,VALID,1000.22,VALID,0,VALID,88.2289,VALID,0,VALID,23.7402,VALID,98,VALID,0,
2010-06-26, 00:19:04,VALID,1000.22,VALID,0,VALID,88.6257,VALID,0,VALID,23.7012,VALID,98,VALID,0.0277344,
2010-06-26, 00:20:04,VALID,1000.22,VALID,0,VALID,88.8927,VALID,0,VALID,23.6622,VALID,98,VALID,0.138672,
2010-06-26, 00:21:04,VALID,1000.2,VALID,0,VALID,88.9156,VALID,0,VALID,23.6232,VALID,98,VALID,0.169922,
2010-06-26, 00:22:04,VALID,1000.17,VALID,0,VALID,88.9461,VALID,0,VALID,23.5841,VALID,98,VALID,0.127344,
2010-06-26, 00:23:04,VALID,1000.14,VALID,0,VALID,89.0224,VALID,0,VALID,23.5646,VALID,99,VALID,0.473437,
2010-06-26, 00:24:04,VALID,1000.13,VALID,0,VALID,89.1292,VALID,0,VALID,23.5256,VALID,101,VALID,0.301172,
2010-06-26, 00:25:04,VALID,1000.11,VALID,0,VALID,88.9843,VALID,0,VALID,23.5061,VALID,101,VALID,0.180469,
2010-06-26, 00:26:04,VALID,1000.14,VALID,0,VALID,88.7935,VALID,0,VALID,23.4671,VALID,101,VALID,0,
2010-06-26, 00:27:04,VALID,1000.09,VALID,0,VALID,89.0071,VALID,0,VALID,23.4085,VALID,101,VALID,0,
2010-06-26, 00:28:04,VALID,1000.1,VALID,0,VALID,89.3963,VALID,0,VALID,23.3695,VALID,101,VALID,0.00117188,
2010-06-26, 00:29:04,VALID,1000.13,VALID,0,VALID,89.8464,VALID,0,VALID,23.3695,VALID,104,VALID,0.549609,
2010-06-26, 00:30:04,VALID,1000.1,VALID,0,VALID,89.7549,VALID,0,VALID,23.3695,VALID,122,VALID,0.728516,
2010-06-26, 00:31:04,VALID,1000.06,VALID,0,VALID,90.0143,VALID,0,VALID,23.4085,VALID,123,VALID,0.660937,
2010-06-26, 00:32:04,VALID,1000.08,VALID,0,VALID,89.7854,VALID,0,VALID,23.4866,VALID,123,VALID,0.505078,
2010-06-26, 00:33:04,VALID,1000.07,VALID,0,VALID,89.2589,VALID,0,VALID,23.5256,VALID,123,VALID,0.486719,
2010-06-26, 00:34:04,VALID,1000.06,VALID,0,VALID,88.9156,VALID,0,VALID,23.5415,VALID,123,VALID,0.630859,
2010-06-26, 00:35:04,VALID,1000.03,VALID,0,VALID,88.6714,VALID,0,VALID,23.5823,VALID,123,VALID,0.624609,
2010-06-26, 00:36:04,VALID,1000.01,VALID,0,VALID,88.4578,VALID,0.112286,VALID,23.5823,VALID,123,VALID,0.478516,
2010-06-26, 00:37:04,VALID,1000,VALID,0,VALID,88.4349,VALID,0,VALID,23.6214,VALID,130,VALID,0.687109,
2010-06-26, 00:38:04,VALID,999.994,VALID,0,VALID,88.1984,VALID,0,VALID,23.6019,VALID,131,VALID,0.716797,
2010-06-26, 00:39:04,VALID,999.947,VALID,0,VALID,87.8093,VALID,0,VALID,23.6019,VALID,131,VALID,0.846484,
2010-06-26, 00:40:04,VALID,999.971,VALID,0,VALID,87.8246,VALID,0.112286,VALID,23.6019,VALID,135,VALID,1.02656,
2010-06-26, 00:41:04,VALID,999.926,VALID,0,VALID,87.7101,VALID,0.112286,VALID,23.6214,VALID,138,VALID,1.07695,
2010-06-26, 00:42:04,VALID,999.88,VALID,0,VALID,87.7254,VALID,0.112286,VALID,23.6409,VALID,138,VALID,0.884375,
2010-06-26, 00:43:04,VALID,999.879,VALID,0,VALID,87.9161,VALID,0.112286,VALID,23.6214,VALID,138,VALID,0.662109,
2010-06-26, 00:44:04,VALID,999.87,VALID,0,VALID,88.0153,VALID,0,VALID,23.6214,VALID,138,VALID,0.587109,
2010-06-26, 00:45:04,VALID,999.879,VALID,0,VALID,88.0382,VALID,0.112286,VALID,23.6214,VALID,138,VALID,0.674219,
2010-06-26, 00:46:04,VALID,999.856,VALID,0,VALID,88.0382,VALID,0,VALID,23.6409,VALID,138,VALID,0.848437,
2010-06-26, 00:47:04,VALID,999.854,VALID,0,VALID,87.9314,VALID,0,VALID,23.6409,VALID,138,VALID,0.878516,
2010-06-26, 00:48:04,VALID,999.829,VALID,0,VALID,88.0687,VALID,0.112286,VALID,23.6799,VALID,137,VALID,0.822266,
2010-06-26, 00:49:04,VALID,999.892,VALID,0,VALID,87.8017,VALID,0,VALID,23.7012,VALID,136,VALID,0.797656,
2010-06-26, 00:50:04,VALID,999.877,VALID,0,VALID,87.8627,VALID,0,VALID,23.7012,VALID,135,VALID,0.88125,
2010-06-26, 00:51:04,VALID,999.842,VALID,0,VALID,87.7711,VALID,0,VALID,23.6817,VALID,126,VALID,1.00664,
2010-06-26, 00:52:04,VALID,999.857,VALID,0,VALID,88.0534,VALID,0,VALID,23.6817,VALID,126,VALID,1.09453,
2010-06-26, 00:53:04,VALID,999.797,VALID,0,VALID,88.3129,VALID,0,VALID,23.6604,VALID,126,VALID,0.710156,
2010-06-26, 00:54:04,VALID,999.803,VALID,0,VALID,88.412,VALID,0,VALID,23.7012,VALID,126,VALID,0.483984,
2010-06-26, 00:55:04,VALID,999.801,VALID,0,VALID,87.9085,VALID,0,VALID,23.6817,VALID,126,VALID,0.551562,
2010-06-26, 00:56:04,VALID,999.802,VALID,0,VALID,88.206,VALID,0,VALID,23.664,VALID,126,VALID,0.570313,
2010-06-26, 00:57:04,VALID,999.803,VALID,0,VALID,88.4883,VALID,0,VALID,23.6622,VALID,126,VALID,0.846875,
2010-06-26, 00:58:04,VALID,999.755,VALID,0,VALID,88.3892,VALID,0,VALID,23.6817,VALID,130,VALID,0.9875,
2010-06-26, 00:59:04,VALID,999.732,VALID,0,VALID,88.5265,VALID,0,VALID,23.6817,VALID,130,VALID,0.700781,
2010-06-26, 01:00:04,VALID,999.695,VALID,0,VALID,88.3968,VALID,0,VALID,23.6622,VALID,130,VALID,0.34375,
2010-06-26, 01:01:04,VALID,999.713,VALID,0,VALID,88.3663,VALID,0,VALID,23.6232,VALID,130,VALID,0.136328,
2010-06-26, 01:02:04,VALID,999.719,VALID,0,VALID,88.557,VALID,0,VALID,23.6036,VALID,130,VALID,0.256641,
2010-06-26, 01:03:04,VALID,999.678,VALID,0,VALID,88.7554,VALID,0,VALID,23.6036,VALID,130,VALID,0.3375,
2010-06-26, 01:04:04,VALID,999.68,VALID,0,VALID,88.8011,VALID,0,VALID,23.5841,VALID,130,VALID,0.396875,
2010-06-26, 01:05:04,VALID,999.633,VALID,0,VALID,88.8164,VALID,0,VALID,23.5646,VALID,130,VALID,0.325,
2010-06-26, 01:06:04,VALID,999.649,VALID,0,VALID,88.6562,VALID,0,VALID,23.5256,VALID,131,VALID,0.228125,
2010-06-26, 01:07:04,VALID,999.639,VALID,0,VALID,88.8011,VALID,0,VALID,23.4866,VALID,131,VALID,0,
2010-06-26, 01:08:04,VALID,999.637,VALID,0,VALID,88.969,VALID,0,VALID,23.4671,VALID,131,VALID,0,
2010-06-26, 01:09:04,VALID,999.601,VALID,0,VALID,88.8698,VALID,0,VALID,23.4298,VALID,131,VALID,0,
2010-06-26, 01:10:04,VALID,999.631,VALID,0,VALID,89.2589,VALID,0,VALID,23.3695,VALID,131,VALID,0,
2010-06-26, 01:11:04,VALID,999.652,VALID,0,VALID,89.3505,VALID,0,VALID,23.3305,VALID,131,VALID,0,
2010-06-26, 01:12:04,VALID,999.612,VALID,0,VALID,89.6938,VALID,0,VALID,23.2719,VALID,131,VALID,0.323828,
2010-06-26, 01:13:04,VALID,999.568,VALID,0,VALID,89.8922,VALID,0,VALID,23.2524,VALID,131,VALID,0.408203,
2010-06-26, 01:14:04,VALID,999.517,VALID,0,VALID,89.9074,VALID,0,VALID,23.2152,VALID,131,VALID,0.40625,
2010-06-26, 01:15:04,VALID,999.523,VALID,0,VALID,90.2584,VALID,0,VALID,23.1762,VALID,131,VALID,0.496484,
2010-06-26, 01:16:04,VALID,999.522,VALID,0,VALID,90.1974,VALID,0,VALID,23.1371,VALID,131,VALID,0.391016,
2010-06-26, 01:17:04,VALID,999.49,VALID,0,VALID,90.5178,VALID,0,VALID,23.0769,VALID,131,VALID,0.276172,
2010-06-26, 01:18:04,VALID,999.496,VALID,0,VALID,90.8383,VALID,0,VALID,23.0378,VALID,131,VALID,0.244922,
2010-06-26, 01:19:04,VALID,999.489,VALID,0,VALID,90.8611,VALID,0,VALID,22.9988,VALID,131,VALID,0.35625,
2010-06-26, 01:20:04,VALID,999.482,VALID,0,VALID,91.0671,VALID,0,VALID,22.9598,VALID,131,VALID,0.360938,
2010-06-26, 01:21:04,VALID,999.463,VALID,0,VALID,91.3342,VALID,0,VALID,22.9403,VALID,131,VALID,0.262109,
2010-06-26, 01:22:04,VALID,999.468,VALID,0,VALID,90.6628,VALID,0,VALID,22.8427,VALID,131,VALID,0.461328,
2010-06-26, 01:23:04,VALID,999.466,VALID,0,VALID,90.6094,VALID,0,VALID,22.7452,VALID,131,VALID,0.309375,
2010-06-26, 01:24:04,VALID,999.476,VALID,0,VALID,91.2655,VALID,0,VALID,22.7062,VALID,131,VALID,0.158203,
2010-06-26, 01:25:04,VALID,999.489,VALID,0,VALID,91.6241,VALID,0,VALID,22.6672,VALID,131,VALID,0.126172,
2010-06-26, 01:26:04,VALID,999.477,VALID,0,VALID,92.0514,VALID,0,VALID,22.6689,VALID,131,VALID,0,
2010-06-26, 01:27:04,VALID,999.476,VALID,0,VALID,92.3413,VALID,0,VALID,22.6477,VALID,131,VALID,0,
2010-06-26, 01:28:04,VALID,999.456,VALID,0,VALID,92.6388,VALID,0,VALID,22.6477,VALID,131,VALID,0,
2010-06-26, 01:29:04,VALID,999.431,VALID,0,VALID,92.8677,VALID,0,VALID,22.6867,VALID,131,VALID,0,
2010-06-26, 01:30:04,VALID,999.413,VALID,0,VALID,93.0127,VALID,0,VALID,22.7062,VALID,131,VALID,0,
2010-06-26, 01:31:04,VALID,999.416,VALID,0,VALID,93.0966,VALID,0,VALID,22.7257,VALID,131,VALID,0,
2010-06-26, 01:32:04,VALID,999.443,VALID,0,VALID,93.0814,VALID,0,VALID,22.7257,VALID,131,VALID,0,
2010-06-26, 01:33:04,VALID,999.46,VALID,0,VALID,93.0127,VALID,0,VALID,22.7257,VALID,131,VALID,0,
2010-06-26, 01:34:04,VALID,999.471,VALID,0,VALID,92.9593,VALID,0,VALID,22.7257,VALID,131,VALID,0.147266,
2010-06-26, 01:35:04,VALID,999.452,VALID,0,VALID,92.8601,VALID,0,VALID,22.7062,VALID,131,VALID,0.31875,
2010-06-26, 01:36:04,VALID,999.45,VALID,0,VALID,92.8448,VALID,0,VALID,22.7062,VALID,131,VALID,0.523438,
2010-06-26, 01:37:04,VALID,999.434,VALID,0,VALID,92.883,VALID,0,VALID,22.7452,VALID,77,VALID,0.785156,
2010-06-26, 01:38:04,VALID,999.408,VALID,0,VALID,92.8143,VALID,0,VALID,22.7647,VALID,76,VALID,0.734375,
2010-06-26, 01:39:04,VALID,999.408,VALID,0,VALID,92.6541,VALID,0,VALID,22.7842,VALID,76,VALID,0.682813,
2010-06-26, 01:40:04,VALID,999.428,VALID,0,VALID,92.5091,VALID,0,VALID,22.7647,VALID,76,VALID,0.577344,
2010-06-26, 01:41:04,VALID,999.446,VALID,0,VALID,91.8148,VALID,0,VALID,22.7062,VALID,76,VALID,0.644141,
2010-06-26, 01:42:04,VALID,999.422,VALID,0,VALID,92.1963,VALID,0,VALID,22.6867,VALID,76,VALID,0.509766,
2010-06-26, 01:43:04,VALID,999.375,VALID,0,VALID,92.5854,VALID,0,VALID,22.7257,VALID,76,VALID,0.596875,
2010-06-26, 01:44:04,VALID,999.387,VALID,0,VALID,92.7685,VALID,0,VALID,22.7647,VALID,76,VALID,0.666016,
2010-06-26, 01:45:04,VALID,999.366,VALID,0,VALID,92.8525,VALID,0,VALID,22.7842,VALID,76,VALID,0.502344,
2010-06-26, 01:46:04,VALID,999.369,VALID,0,VALID,92.8143,VALID,0,VALID,22.8037,VALID,76,VALID,0.544141,
2010-06-26, 01:47:04,VALID,999.375,VALID,0,VALID,92.8372,VALID,0,VALID,22.8037,VALID,76,VALID,0.614062,
2010-06-26, 01:48:04,VALID,999.322,VALID,0,VALID,92.6388,VALID,0,VALID,22.8232,VALID,76,VALID,0.627344,
2010-06-26, 01:49:04,VALID,999.346,VALID,0,VALID,92.5397,VALID,0,VALID,22.8037,VALID,76,VALID,0.521875,
2010-06-26, 01:50:04,VALID,999.305,VALID,0,VALID,92.2726,VALID,0,VALID,22.7842,VALID,76,VALID,0.392578,
2010-06-26, 01:51:04,VALID,999.325,VALID,0,VALID,91.9445,VALID,0,VALID,22.7257,VALID,76,VALID,0.28125,
2010-06-26, 01:52:04,VALID,999.33,VALID,0,VALID,91.8835,VALID,0,VALID,22.6672,VALID,76,VALID,0.284766,
2010-06-26, 01:53:04,VALID,999.333,VALID,0,VALID,91.9751,VALID,0,VALID,22.6672,VALID,76,VALID,0.340625,
2010-06-26, 01:54:04,VALID,999.349,VALID,0,VALID,92.3108,VALID,0,VALID,22.6477,VALID,76,VALID,0.346484,
2010-06-26, 01:55:04,VALID,999.341,VALID,0,VALID,92.6541,VALID,0,VALID,22.6884,VALID,76,VALID,0.376563,
2010-06-26, 01:56:04,VALID,999.366,VALID,0,VALID,92.8296,VALID,0,VALID,22.7257,VALID,76,VALID,0.415625,
2010-06-26, 01:57:04,VALID,999.368,VALID,0,VALID,92.9364,VALID,0,VALID,22.7257,VALID,76,VALID,0.479688,
2010-06-26, 01:58:04,VALID,999.377,VALID,0,VALID,93.0508,VALID,0,VALID,22.7647,VALID,76,VALID,0.388281,
2010-06-26, 01:59:04,VALID,999.366,VALID,0,VALID,93.1043,VALID,0,VALID,22.8037,VALID,76,VALID,0.428125,
2010-06-26, 02:00:04,VALID,999.36,VALID,0,VALID,93.1195,VALID,0,VALID,22.825,VALID,76,VALID,0.609766,
2010-06-26, 02:01:04,VALID,999.339,VALID,0,VALID,93.0966,VALID,0,VALID,22.8427,VALID,116,VALID,0.673437,
2010-06-26, 02:02:04,VALID,999.336,VALID,0,VALID,93.028,VALID,0,VALID,22.8818,VALID,121,VALID,0.667969,
2010-06-26, 02:03:04,VALID,999.323,VALID,0,VALID,92.8372,VALID,0,VALID,22.9013,VALID,121,VALID,0.520703,
2010-06-26, 02:04:04,VALID,999.291,VALID,0,VALID,92.7609,VALID,0,VALID,22.9013,VALID,121,VALID,0.424219,
2010-06-26, 02:05:04,VALID,999.28,VALID,0,VALID,92.6541,VALID,0,VALID,22.9403,VALID,121,VALID,0.285547,
2010-06-26, 02:06:04,VALID,999.321,VALID,0,VALID,92.4786,VALID,0,VALID,22.9403,VALID,121,VALID,0.255078,
2010-06-26, 02:07:04,VALID,999.326,VALID,0,VALID,92.204,VALID,0,VALID,22.9208,VALID,121,VALID,0.241406,
2010-06-26, 02:08:04,VALID,999.312,VALID,0,VALID,91.708,VALID,0,VALID,22.8623,VALID,121,VALID,0.170703,
2010-06-26, 02:09:04,VALID,999.29,VALID,0,VALID,91.2884,VALID,0,VALID,22.7842,VALID,121,VALID,0,
2010-06-26, 02:10:04,VALID,999.279,VALID,0,VALID,91.2731,VALID,0,VALID,22.685,VALID,121,VALID,0.216406,
2010-06-26, 02:11:04,VALID,999.289,VALID,0,VALID,91.5554,VALID,0,VALID,22.6672,VALID,121,VALID,0.133984,
2010-06-26, 02:12:04,VALID,999.25,VALID,0,VALID,91.8835,VALID,0,VALID,22.6477,VALID,121,VALID,0.0910156,
2010-06-26, 02:13:04,VALID,999.217,VALID,0,VALID,92.0895,VALID,0,VALID,22.6299,VALID,121,VALID,0.207031,
2010-06-26, 02:14:04,VALID,999.222,VALID,0,VALID,92.2421,VALID,0,VALID,22.6299,VALID,121,VALID,0.535547,
2010-06-26, 02:15:04,VALID,999.191,VALID,0,VALID,92.4481,VALID,0,VALID,22.6299,VALID,121,VALID,0.387891,
2010-06-26, 02:16:04,VALID,999.224,VALID,0,VALID,92.5778,VALID,0,VALID,22.6104,VALID,121,VALID,0.341406,
2010-06-26, 02:17:04,VALID,999.218,VALID,0,VALID,92.6999,VALID,0,VALID,22.6299,VALID,121,VALID,0.176563,
2010-06-26, 02:18:04,VALID,999.16,VALID,0,VALID,92.7609,VALID,0,VALID,22.5892,VALID,121,VALID,0.272656,
2010-06-26, 02:19:04,VALID,999.194,VALID,0,VALID,92.738,VALID,0,VALID,22.5501,VALID,121,VALID,0.228125,
2010-06-26, 02:20:04,VALID,999.204,VALID,0,VALID,92.7457,VALID,0,VALID,22.5306,VALID,121,VALID,0.114844,
2010-06-26, 02:21:04,VALID,999.181,VALID,0,VALID,92.7991,VALID,0,VALID,22.4916,VALID,121,VALID,0,
2010-06-26, 02:22:04,VALID,999.152,VALID,0,VALID,92.8677,VALID,0,VALID,22.4916,VALID,121,VALID,0.0902344,
2010-06-26, 02:23:04,VALID,999.167,VALID,0,VALID,92.9364,VALID,0,VALID,22.5111,VALID,121,VALID,0.344531,
2010-06-26, 02:24:04,VALID,999.158,VALID,0,VALID,92.944,VALID,0,VALID,22.4526,VALID,121,VALID,0.304688,
2010-06-26, 02:25:04,VALID,999.137,VALID,0,VALID,92.5473,VALID,0,VALID,22.3356,VALID,121,VALID,0.314453,
2010-06-26, 02:26:04,VALID,999.137,VALID,0,VALID,92.8677,VALID,0,VALID,22.3746,VALID,121,VALID,0.341016,
2010-06-26, 02:27:04,VALID,999.109,VALID,0,VALID,93.2111,VALID,0,VALID,22.3941,VALID,121,VALID,0.422656,
2010-06-26, 02:28:04,VALID,999.079,VALID,0,VALID,93.3637,VALID,0,VALID,22.4526,VALID,114,VALID,0.591797,
2010-06-26, 02:29:04,VALID,999.076,VALID,0,VALID,93.4171,VALID,0,VALID,22.4933,VALID,101,VALID,0.625,
2010-06-26, 02:30:04,VALID,999.089,VALID,0,VALID,93.4781,VALID,0,VALID,22.5111,VALID,100,VALID,0.585547,
2010-06-26, 02:31:04,VALID,999.079,VALID,0,VALID,93.4476,VALID,0,VALID,22.5306,VALID,100,VALID,0.546094,
2010-06-26, 02:32:04,VALID,999.097,VALID,0,VALID,93.3637,VALID,0,VALID,22.5111,VALID,100,VALID,0.476953,
2010-06-26, 02:33:04,VALID,999.07,VALID,0,VALID,93.3255,VALID,0,VALID,22.5306,VALID,100,VALID,0.451953,
2010-06-26, 02:34:04,VALID,999.102,VALID,0,VALID,93.2187,VALID,0,VALID,22.5306,VALID,100,VALID,0.519922,
2010-06-26, 02:35:04,VALID,999.109,VALID,0,VALID,93.0966,VALID,0,VALID,22.5306,VALID,100,VALID,0.476172,
2010-06-26, 02:36:04,VALID,999.108,VALID,0,VALID,92.9822,VALID,0,VALID,22.5111,VALID,100,VALID,0.65,
2010-06-26, 02:37:04,VALID,999.138,VALID,0,VALID,92.9364,VALID,0,VALID,22.5501,VALID,100,VALID,0.577344,
2010-06-26, 02:38:04,VALID,999.117,VALID,0,VALID,92.9593,VALID,0,VALID,22.5892,VALID,100,VALID,0.494531,
2010-06-26, 02:39:04,VALID,999.117,VALID,0,VALID,92.8983,VALID,0,VALID,22.6087,VALID,100,VALID,0.485938,
2010-06-26, 02:40:04,VALID,999.047,VALID,0,VALID,92.7609,VALID,0,VALID,22.6087,VALID,100,VALID,0.414844,
2010-06-26, 02:41:04,VALID,999.076,VALID,0,VALID,92.3108,VALID,0,VALID,22.5519,VALID,100,VALID,0.455078,
2010-06-26, 02:42:04,VALID,999.086,VALID,0,VALID,92.059,VALID,0,VALID,22.4916,VALID,100,VALID,0.503516,
2010-06-26, 02:43:04,VALID,999.06,VALID,0,VALID,91.9293,VALID,0,VALID,22.4331,VALID,95,VALID,0.433984,
2010-06-26, 02:44:04,VALID,999.067,VALID,0,VALID,91.9369,VALID,0,VALID,22.3941,VALID,95,VALID,0.194531,
2010-06-26, 02:45:04,VALID,999.037,VALID,0,VALID,92.1734,VALID,0,VALID,22.3746,VALID,95,VALID,0,
2010-06-26, 02:46:04,VALID,999.044,VALID,0,VALID,92.3947,VALID,0,VALID,22.3746,VALID,95,VALID,0.114844,
2010-06-26, 02:47:04,VALID,999.045,VALID,0,VALID,92.5702,VALID,0,VALID,22.3746,VALID,95,VALID,0.158594,
2010-06-26, 02:48:04,VALID,999.05,VALID,0,VALID,92.7991,VALID,0,VALID,22.3746,VALID,95,VALID,0.134766,
2010-06-26, 02:49:04,VALID,999.071,VALID,0,VALID,92.9211,VALID,0,VALID,22.4136,VALID,95,VALID,0.107813,
2010-06-26, 02:50:04,VALID,999.056,VALID,0,VALID,93.0051,VALID,0,VALID,22.4136,VALID,95,VALID,0.177344,
2010-06-26, 02:51:04,VALID,999.095,VALID,0,VALID,93.089,VALID,0,VALID,22.4136,VALID,95,VALID,0.182031,
2010-06-26, 02:52:04,VALID,999.072,VALID,0,VALID,93.1271,VALID,0,VALID,22.4136,VALID,95,VALID,0.251563,
2010-06-26, 02:53:04,VALID,999.085,VALID,0,VALID,93.1653,VALID,0,VALID,22.4331,VALID,95,VALID,0.219141,
2010-06-26, 02:54:04,VALID,999.114,VALID,0,VALID,93.1348,VALID,0,VALID,22.4119,VALID,95,VALID,0.0851562,
2010-06-26, 02:55:04,VALID,999.056,VALID,0,VALID,93.1271,VALID,0,VALID,22.4331,VALID,95,VALID,0.307813,
2010-06-26, 02:56:04,VALID,999.045,VALID,0,VALID,93.1195,VALID,0,VALID,22.4331,VALID,95,VALID,0.33125,
2010-06-26, 02:57:04,VALID,999.048,VALID,0,VALID,93.028,VALID,0,VALID,22.3729,VALID,94,VALID,0.419531,
2010-06-26, 02:58:04,VALID,999.051,VALID,0,VALID,92.8067,VALID,0,VALID,22.3161,VALID,44,VALID,0.557813,
2010-06-26, 02:59:04,VALID,999.044,VALID,0,VALID,92.7991,VALID,0,VALID,22.2771,VALID,44,VALID,0.527734,
2010-06-26, 03:00:04,VALID,999.043,VALID,0,VALID,92.8677,VALID,0,VALID,22.2576,VALID,44,VALID,0.41875,
2010-06-26, 03:01:04,VALID,999.071,VALID,0,VALID,92.9059,VALID,0,VALID,22.199,VALID,44,VALID,0.687109,
2010-06-26, 03:02:04,VALID,999.068,VALID,0,VALID,92.9745,VALID,0,VALID,22.1795,VALID,41,VALID,0.714844,
2010-06-26, 03:03:04,VALID,999.072,VALID,0,VALID,93.089,VALID,0,VALID,22.1795,VALID,41,VALID,1.13086,
2010-06-26, 03:04:04,VALID,999.073,VALID,0,VALID,92.9898,VALID,0,VALID,22.1405,VALID,41,VALID,1.15664,
2010-06-26, 03:05:04,VALID,999.079,VALID,0,VALID,93.0356,VALID,0,VALID,22.121,VALID,41,VALID,1.05703,
2010-06-26, 03:06:04,VALID,999.081,VALID,0,VALID,93.0661,VALID,0,VALID,22.1405,VALID,41,VALID,0.938672,
2010-06-26, 03:07:04,VALID,999.092,VALID,0,VALID,92.9669,VALID,0,VALID,22.121,VALID,41,VALID,0.875781,
2010-06-26, 03:08:04,VALID,999.106,VALID,0,VALID,92.822,VALID,0,VALID,22.1015,VALID,41,VALID,0.769531,
2010-06-26, 03:09:04,VALID,999.096,VALID,0,VALID,92.8372,VALID,0,VALID,22.082,VALID,41,VALID,1.00391,
2010-06-26, 03:10:04,VALID,999.098,VALID,0,VALID,92.6312,VALID,0,VALID,22.0235,VALID,36,VALID,1.22305,
2010-06-26, 03:11:04,VALID,999.094,VALID,0,VALID,92.6617,VALID,0,VALID,21.9845,VALID,25,VALID,1.34727,
2010-06-26, 03:12:04,VALID,999.106,VALID,0,VALID,92.7228,VALID,0,VALID,21.965,VALID,24,VALID,1.16914,
2010-06-26, 03:13:05,VALID,999.109,VALID,0,VALID,92.9211,VALID,0,VALID,21.926,VALID,24,VALID,1.15391,
2010-06-26, 03:14:05,VALID,999.069,VALID,0,VALID,93.1195,VALID,0,VALID,21.965,VALID,24,VALID,1.19922,
2010-06-26, 03:15:05,VALID,999.123,VALID,0,VALID,93.4781,VALID,0,VALID,22.1015,VALID,23,VALID,1.11289,
2010-06-26, 03:16:05,VALID,999.1,VALID,0,VALID,93.6383,VALID,0,VALID,22.199,VALID,23,VALID,1.05898,
2010-06-26, 03:17:05,VALID,999.088,VALID,0,VALID,93.6536,VALID,0,VALID,22.2186,VALID,23,VALID,1.02813,
2010-06-26, 03:18:05,VALID,999.087,VALID,0,VALID,93.707,VALID,0,VALID,22.2381,VALID,23,VALID,1.12578,
2010-06-26, 03:19:05,VALID,999.092,VALID,0,VALID,93.7375,VALID,0,VALID,22.2592,VALID,23,VALID,1.15508,
2010-06-26, 03:20:05,VALID,999.081,VALID,0,VALID,93.7757,VALID,0,VALID,22.2983,VALID,23,VALID,1.10625,
2010-06-26, 03:21:05,VALID,999.098,VALID,0,VALID,93.7909,VALID,0,VALID,22.3373,VALID,23,VALID,1.20195,
2010-06-26, 03:22:05,VALID,999.113,VALID,0,VALID,93.7833,VALID,0,VALID,22.3568,VALID,23,VALID,1.19492,
2010-06-26, 03:23:05,VALID,999.133,VALID,0,VALID,93.707,VALID,0,VALID,22.2576,VALID,23,VALID,1.19883,
2010-06-26, 03:24:05,VALID,999.164,VALID,0,VALID,93.6154,VALID,0,VALID,22.2983,VALID,23,VALID,1.07539,
2010-06-26, 03:25:05,VALID,999.208,VALID,0,VALID,93.562,VALID,0,VALID,22.2576,VALID,23,VALID,0.721875,
2010-06-26, 03:26:05,VALID,999.19,VALID,0,VALID,93.5468,VALID,0,VALID,22.2788,VALID,23,VALID,0.767969,
2010-06-26, 03:27:05,VALID,999.142,VALID,0,VALID,93.5697,VALID,0,VALID,22.3178,VALID,25,VALID,0.892969,
2010-06-26, 03:28:05,VALID,999.145,VALID,0,VALID,93.5926,VALID,0,VALID,22.3356,VALID,25,VALID,1.02031,
2010-06-26, 03:29:05,VALID,999.127,VALID,0,VALID,93.5315,VALID,0,VALID,22.3763,VALID,25,VALID,0.794531,
2010-06-26, 03:30:05,VALID,999.119,VALID,0,VALID,93.4018,VALID,0,VALID,22.3568,VALID,25,VALID,0.865234,
2010-06-26, 03:31:05,VALID,999.122,VALID,0,VALID,93.2797,VALID,0,VALID,22.3763,VALID,31,VALID,0.855078,
2010-06-26, 03:32:05,VALID,999.146,VALID,0,VALID,93.2111,VALID,0,VALID,22.3958,VALID,34,VALID,0.910937,
2010-06-26, 03:33:05,VALID,999.12,VALID,0,VALID,93.0356,VALID,0,VALID,22.4153,VALID,40,VALID,1.03477,
2010-06-26, 03:34:05,VALID,999.167,VALID,0,VALID,92.7838,VALID,0,VALID,22.3941,VALID,44,VALID,1.18242,
2010-06-26, 03:35:05,VALID,999.144,VALID,0,VALID,92.5549,VALID,0,VALID,22.3551,VALID,47,VALID,1.22187,
2010-06-26, 03:36:05,VALID,999.117,VALID,0,VALID,92.5702,VALID,0,VALID,22.3161,VALID,47,VALID,1.20391,
2010-06-26, 03:37:05,VALID,999.145,VALID,0,VALID,92.6541,VALID,0,VALID,22.3356,VALID,47,VALID,1.10898,
2010-06-26, 03:38:05,VALID,999.165,VALID,0,VALID,92.5854,VALID,0,VALID,22.3356,VALID,47,VALID,1.09883,
2010-06-26, 03:39:05,VALID,999.163,VALID,0,VALID,92.3184,VALID,0,VALID,22.2966,VALID,47,VALID,1.10234,
2010-06-26, 03:40:05,VALID,999.205,VALID,0,VALID,92.1734,VALID,0,VALID,22.2576,VALID,47,VALID,1.08633,
2010-06-26, 03:41:05,VALID,999.205,VALID,0,VALID,91.9522,VALID,0,VALID,22.1795,VALID,47,VALID,0.996094,
2010-06-26, 03:42:05,VALID,999.223,VALID,0,VALID,91.7996,VALID,0,VALID,22.1227,VALID,47,VALID,1.0043,
2010-06-26, 03:43:05,VALID,999.227,VALID,0,VALID,92.0209,VALID,0.112286,VALID,22.0625,VALID,47,VALID,1.06875,
2010-06-26, 03:44:05,VALID,999.222,VALID,0,VALID,92.3413,VALID,0,VALID,22.043,VALID,55,VALID,1.12188,
2010-06-26, 03:45:05,VALID,999.206,VALID,0,VALID,92.5778,VALID,0,VALID,22.043,VALID,58,VALID,1.12109,
2010-06-26, 03:46:05,VALID,999.208,VALID,0,VALID,92.7457,VALID,0,VALID,22.0235,VALID,59,VALID,1.15352,